Location: D�rnast
(49.6426°N, 11.9755°E)
Time: 19:19:31
(UTC+00:00)

Envisat - Pass Details

Date: 18 April 2021
Orbit: 764 x 766 km, 98.1° (Epoch: 06 May)

Event Time Altitude Azimuth Distance (km) Brightness Sun altitude
Rises 03:08:16 0° 33° (NNE) 3,242 7.5 -10.5°
Reaches altitude 10° 03:12:49 10° 70° (ENE) 2,307 7.0 -9.8°
Maximum altitude 03:13:58 11° 84° (E) 2,256 6.6 -9.7°
Drops below altitude 10° 03:15:07 10° 97° (E) 2,303 6.4 -9.5°
Sets 03:19:37 0° 135° (SE) 3,221 6.5 -8.9°
